Simultaneous Nadir Overpasses (SNOs) Predictions

Prediction of SNOs between NOAA-21 and METOP-C Satellite Orbit:

Table of predicted SNOs for the next 14.0 days since TLE Epoch: 6/1/2024
Index Date (NOAA-21) Time (NOAA-21) Lat,Lon (NOAA-21) SZA (NOAA-21 ) Date (METOP-C) Time (METOP-C) Lat,Lon (METOP-C) SZA (METOP-C ) Distance(km) Time Diff (sec)
1 06/02/2024 21:46:17 -73.47, 23.49 128.70 06/02/2024 21:47:23 -73.43, 26.51 128.89 95.67 66
2 06/02/2024 22:36:59 73.25,-168.72 51.06 06/02/2024 22:38:07 73.23,-166.60 50.93 67.86 68
3 06/02/2024 23:27:41 -73.17, -1.21 129.04 06/02/2024 23:28:51 -73.11, 0.46 129.19 54.26 70
4 06/03/2024 00:18:22 72.95, 166.57 50.72 06/03/2024 00:19:34 72.91, 167.36 50.63 26.31 72
5 06/03/2024 01:09:04 -72.86, -25.93 129.38 06/03/2024 01:10:17 -72.84, -25.46 129.44 15.87 73
6 06/03/2024 01:59:48 72.75, 141.62 50.49 06/03/2024 02:00:59 72.73, 141.66 50.46 1.79 71
7 06/03/2024 02:50:31 -72.71, -50.99 129.55 06/03/2024 02:51:41 -72.72, -51.05 129.56 2.02 70
8 06/03/2024 03:41:17 72.69, 116.36 50.43 06/03/2024 03:42:21 72.72, 116.28 50.44 3.39 64
9 06/03/2024 04:32:01 -72.71, -76.36 129.56 06/03/2024 04:33:03 -72.70, -76.43 129.59 2.68 62
10 06/03/2024 05:22:47 72.69, 90.98 50.42 06/03/2024 05:23:43 72.70, 90.90 50.41 2.65 56
11 06/03/2024 06:13:31 -72.71,-101.73 129.57 06/03/2024 06:14:24 -72.73,-101.70 129.57 2.34 53
12 06/03/2024 07:04:17 72.69, 65.61 50.41 06/03/2024 07:05:05 72.68, 65.53 50.39 3.29 48
13 06/03/2024 07:55:01 -72.71,-127.11 129.58 06/03/2024 07:55:46 -72.71,-127.08 129.59 0.87 45
14 06/03/2024 08:45:47 72.69, 40.24 50.40 06/03/2024 08:46:26 72.71, 40.25 50.41 2.02 39
15 06/03/2024 09:36:31 -72.71,-152.48 129.59 06/03/2024 09:37:08 -72.69,-152.46 129.62 2.00 37
16 06/03/2024 10:27:17 72.69, 14.87 50.39 06/03/2024 10:27:48 72.69, 14.87 50.38 0.20 31
17 06/03/2024 11:18:00 -72.66,-177.75 129.65 06/03/2024 11:18:30 -72.67,-177.84 129.64 3.47 30
18 06/03/2024 12:08:47 72.69, -10.51 50.38 06/03/2024 12:09:10 72.67, -10.51 50.36 2.07 23
19 06/03/2024 12:59:30 -72.66, 156.88 129.66 06/03/2024 12:59:52 -72.65, 156.78 129.67 3.20 22
20 06/03/2024 13:50:17 72.69, -35.88 50.37 06/03/2024 13:50:31 72.70, -35.78 50.38 3.58 14
21 06/03/2024 14:41:00 -72.65, 131.51 129.67 06/03/2024 14:41:13 -72.69, 131.51 129.65 3.40 13
22 06/03/2024 15:31:47 72.69, -61.25 50.36 06/03/2024 15:31:53 72.68, -61.16 50.35 3.04 6
23 06/03/2024 16:22:30 -72.65, 106.13 129.68 06/03/2024 16:22:35 -72.67, 106.13 129.67 1.42 5
24 06/03/2024 17:13:16 72.64, -86.52 50.30 06/03/2024 17:13:15 72.66, -86.54 50.33 3.21 1
25 06/03/2024 18:04:00 -72.65, 80.76 129.69 06/03/2024 18:03:57 -72.65, 80.75 129.70 0.67 3
26 06/03/2024 18:54:46 72.63,-111.89 50.29 06/03/2024 18:54:37 72.64,-111.92 50.30 1.42 9
27 06/03/2024 19:45:30 -72.65, 55.39 129.70 06/03/2024 19:45:19 -72.63, 55.37 129.72 2.63 11
28 06/03/2024 20:36:16 72.63,-137.27 50.28 06/03/2024 20:35:59 72.63,-137.30 50.28 1.44 17
29 06/03/2024 21:27:00 -72.65, 30.02 129.71 06/03/2024 21:26:40 -72.66, 30.10 129.70 2.91 20
30 06/03/2024 22:17:46 72.63,-162.64 50.27 06/03/2024 22:17:21 72.61,-162.68 50.25 3.24 25
31 06/03/2024 23:08:30 -72.65, 4.64 129.72 06/03/2024 23:08:02 -72.64, 4.72 129.73 2.68 28
32 06/03/2024 23:59:16 72.63, 171.99 50.26 06/03/2024 23:58:42 72.64, 172.05 50.27 2.05 34
33 06/04/2024 00:49:59 -72.60, -20.62 129.78 06/04/2024 00:49:24 -72.62, -20.66 129.75 2.92 35
34 06/04/2024 01:40:46 72.63, 146.62 50.25 06/04/2024 01:40:04 72.62, 146.67 50.25 2.21 42
35 06/04/2024 02:31:29 -72.60, -46.00 129.79 06/04/2024 02:30:46 -72.60, -46.04 129.77 1.49 43
36 06/04/2024 03:22:15 72.58, 121.35 50.19 06/04/2024 03:21:26 72.60, 121.29 50.22 2.95 49
37 06/04/2024 04:12:59 -72.60, -71.37 129.80 06/04/2024 04:12:08 -72.58, -71.42 129.80 1.99 51
38 06/04/2024 05:03:45 72.58, 95.97 50.18 06/04/2024 05:02:48 72.58, 95.91 50.20 2.15 57
39 06/04/2024 05:54:29 -72.60, -96.74 129.81 06/04/2024 05:53:29 -72.62, -96.69 129.78 2.91 60
40 06/04/2024 06:45:15 72.58, 70.60 50.17 06/04/2024 06:44:10 72.56, 70.53 50.17 3.00 65
41 06/04/2024 07:35:59 -72.59,-122.12 129.82 06/04/2024 07:34:51 -72.60,-122.07 129.80 1.59 68
42 06/04/2024 08:26:45 72.58, 45.23 50.16 06/04/2024 08:25:31 72.59, 45.25 50.19 1.97 74
43 06/04/2024 09:17:28 -72.54,-147.39 129.88 06/04/2024 09:16:13 -72.58,-147.45 129.83 4.46 75
44 06/04/2024 10:08:10 72.32, 20.37 49.88 06/04/2024 10:06:58 72.32, 19.36 49.94 33.81 72
45 06/04/2024 10:58:52 -72.24,-172.15 130.22 06/04/2024 10:57:41 -72.25,-173.43 130.12 43.52 71
46 06/04/2024 11:49:34 72.01, -4.41 49.54 06/04/2024 11:48:26 71.99, -6.61 49.64 75.48 68
47 06/04/2024 12:40:16 -71.93, 163.06 130.56 06/04/2024 12:39:09 -71.93, 160.60 130.42 84.92 67



Historial Predications of SNOs between NOAA-21 and METOP-C
